W7YP Weather Reports


Display with metric or nautical units.
time (UTC)temp
F
wind
direction
speed
MPH
gust
MPH
rain 1hr
in
rain 24hr
in
rain mn
in
humidity
%
barometer
mb
20260506023827 49 124 0.0 0.0 0.00 0.00 0.00 52 1018.3
20260506023553 49 124 0.0 0.0 0.00 0.00 0.00 48 1018.2
20260506022825 49 124 0.0 0.0 0.00 0.00 0.00 48 1018.2
20260506022323 49 124 0.0 0.0 0.00 0.00 0.00 46 1018.1
20260506021823 50 124 0.0 0.0 0.00 0.00 0.00 46 1018.1
20260506021324 50 124 0.0 2.0 0.00 0.00 0.00 46 1018.1
20260506021308 50 124 0.0 3.0 0.00 0.00 0.00 44 1018.1
20260506020326 50 124 0.0 3.0 0.00 0.00 0.00 45 1018.1
20260506015817 50 123 0.0 1.0 0.00 0.00 0.00 44 1018.1
20260506015750 50 124 0.0 3.0 0.00 0.00 0.00 43 1018.1
20260506014804 50 116 0.0 3.0 0.00 0.00 0.00 44 1018.1
20260506014304 50 67 0.0 2.0 0.00 0.00 0.00 43 1018.1
20260506014039 50 137 0.0 6.0 0.00 0.00 0.00 43 1017.9
20260506013304 50 138 1.0 6.0 0.00 0.00 0.00 42 1017.9
20260506012759 50 100 0.0 7.0 0.00 0.00 0.00 42 1017.9
20260506012259 50 130 1.0 7.0 0.00 0.00 0.00 42 1018.1
20260506011800 50 154 1.0 6.0 0.00 0.00 0.00 42 1017.9
20260506011301 51 136 2.0 7.0 0.00 0.00 0.00 43 1018.1
20260506010800 51 153 2.0 9.0 0.00 0.00 0.00 41 1018.1
20260506010301 51 126 1.0 9.0 0.00 0.00 0.00 42 1018.1
20260506005755 52 53 2.0 8.0 0.00 0.00 0.00 40 1018.1
20260506005251 52 127 1.0 7.0 0.00 0.00 0.00 39 1018.1
20260506004751 53 102 4.0 9.0 0.00 0.00 0.00 39 1018.1
20260506004250 53 345 2.0 10.0 0.00 0.00 0.00 39 1018.1
20260506003753 53 132 3.0 10.0 0.00 0.00 0.00 38 1018.1
20260506003513 54 128 1.0 9.0 0.00 0.00 0.00 38 1018.1
20260506002751 54 107 3.0 9.0 0.00 0.00 0.00 37 1018.1
20260506002247 54 49 3.0 9.0 0.00 0.00 0.00 37 1018.1
20260506001741 54 115 4.0 9.0 0.00 0.00 0.00 38 1018.1
20260506001241 54 134 2.0 9.0 0.00 0.00 0.00 36 1018.2
20260506000742 54 152 1.0 10.0 0.00 0.00 0.00 38 1018.2
20260506000241 55 188 2.0 10.0 0.00 0.00 0.00 37 1018.3
20260505235742 55 346 1.0 4.0 0.00 0.00 0.00 38 1018.2
20260505235245 54 182 0.0 8.0 0.00 0.00 0.00 36 1018.3
20260505234738 54 113 3.0 8.0 0.00 0.00 0.00 35 1018.3
20260505234232 54 100 2.0 10.0 0.00 0.00 0.00 35 1018.3
20260505233733 54 126 3.0 10.0 0.00 0.00 0.00 34 1018.2
20260505233233 54 90 1.0 7.0 0.00 0.00 0.00 35 1018.3
20260505232734 54 125 2.0 12.0 0.00 0.00 0.00 36 1018.4
20260505232234 54 95 2.0 12.0 0.00 0.00 0.00 35 1018.4
20260505231728 55 109 2.0 11.0 0.00 0.00 0.00 35 1018.4
20260505231228 54 141 1.0 11.0 0.00 0.00 0.00 35 1018.3
20260505230729 55 74 4.0 10.0 0.00 0.00 0.00 34 1018.3
20260505230229 55 94 2.0 13.0 0.00 0.00 0.00 34 1018.4
20260505225729 55 155 2.0 13.0 0.00 0.00 0.00 34 1018.3
20260505225229 55 143 4.0 11.0 0.00 0.00 0.00 34 1018.4
20260505224730 55 75 2.0 11.0 0.00 0.00 0.00 34 1018.5
20260505224228 55 111 1.0 10.0 0.00 0.00 0.00 36 1018.4
20260505223724 55 44 2.0 18.0 0.00 0.00 0.00 35 1018.4
20260505223225 55 5 2.0 18.0 0.00 0.00 0.00 36 1018.5
20260505222725 55 113 2.0 9.0 0.00 0.00 0.00 34 1018.5
20260505222225 55 103 1.0 13.0 0.00 0.00 0.00 34 1018.4
20260505221726 55 330 2.0 13.0 0.00 0.00 0.00 36 1018.5
20260505221225 55 151 3.0 12.0 0.00 0.00 0.00 34 1018.5
20260505220720 55 333 5.0 12.0 0.00 0.00 0.00 33 1018.6
20260505220216 55 144 2.0 9.0 0.00 0.00 0.00 35 1018.6
20260505215716 55 102 1.0 7.0 0.00 0.00 0.00 35 1018.5
20260505215219 55 138 3.0 11.0 0.00 0.00 0.00 33 1018.6
20260505214716 54 123 2.0 11.0 0.00 0.00 0.00 37 1018.6
20260505214216 53 86 1.0 8.0 0.00 0.00 0.00 36 1018.5
20260505213712 53 109 2.0 11.0 0.00 0.00 0.00 36 1018.7
20260505213211 54 136 6.0 13.0 0.00 0.00 0.00 35 1018.8
20260505212712 54 33 4.0 13.0 0.00 0.00 0.00 35 1018.7
20260505212212 53 173 3.0 9.0 0.00 0.00 0.00 39 1018.8
20260505211712 53 88 1.0 6.0 0.00 0.00 0.00 39 1018.8
20260505211212 52 257 0.0 7.0 0.00 0.00 0.00 37 1018.8
20260505210709 52 168 1.0 7.0 0.00 0.00 0.00 37 1018.9
20260505210203 52 315 1.0 9.0 0.00 0.00 0.00 37 1018.9
20260505205700 52 281 2.0 9.0 0.00 0.00 0.00 36 1018.9
20260505205158 52 95 0.0 7.0 0.00 0.00 0.00 38 1018.8
20260505204657 53 167 1.0 7.0 0.00 0.00 0.00 37 1018.8
20260505204158 53 94 0.0 9.0 0.00 0.00 0.00 37 1018.9
20260505203658 53 77 2.0 9.0 0.00 0.00 0.00 36 1018.9
20260505203158 53 195 3.0 11.0 0.00 0.00 0.00 37 1018.8
20260505202654 54 136 5.0 11.0 0.00 0.00 0.00 37 1019.1
20260505202149 54 130 3.0 8.0 0.00 0.00 0.00 36 1018.9
20260505201649 54 130 2.0 7.0 0.00 0.00 0.00 36 1018.9
20260505201412 54 313 2.0 10.0 0.00 0.00 0.00 38 1019.2
20260505200652 55 142 1.0 13.0 0.00 0.00 0.00 35 1018.9
20260505200150 56 132 3.0 13.0 0.00 0.00 0.00 37 1018.9
20260505195645 56 344 4.0 11.0 0.00 0.00 0.00 37 1018.9
20260505195144 56 55 2.0 10.0 0.00 0.00 0.00 38 1018.8
20260505194905 55 147 1.0 9.0 0.00 0.00 0.00 39 1018.8
20260505194411 55 91 1.0 16.0 0.00 0.00 0.00 38 1018.8
20260505193902 56 84 5.0 16.0 0.00 0.00 0.00 36 1018.8
20260505193140 56 69 2.0 11.0 0.00 0.00 0.00 37 1018.7
20260505192635 55 101 1.0 11.0 0.00 0.00 0.00 40 1018.7
20260505192130 55 111 2.0 12.0 0.00 0.00 0.00 36 1018.7
20260505191630 55 128 5.0 12.0 0.00 0.00 0.00 36 1018.8
20260505191126 55 146 1.0 11.0 0.00 0.00 0.00 38 1018.7
20260505190625 55 76 4.0 11.0 0.00 0.00 0.00 37 1018.8
20260505190349 55 75 2.0 8.0 0.00 0.00 0.00 37 1018.7
20260505185845 55 41 1.0 10.0 0.00 0.00 0.00 40 1018.7
20260505185718 55 147 3.0 7.0 0.00 0.00 0.00 37 1018.7
20260505184627 55 75 2.0 10.0 0.00 0.00 0.00 39 1018.7
20260505184126 55 318 1.0 11.0 0.00 0.00 0.00 39 1018.8
20260505183622 54 150 3.0 11.0 0.00 0.00 0.00 37 1018.8
20260505183117 54 74 3.0 9.0 0.00 0.00 0.00 40 1018.8
20260505182618 54 103 2.0 8.0 0.00 0.00 0.00 38 1018.8
20260505182338 53 250 1.0 8.0 0.00 0.00 0.00 40 1018.8
20260505181613 53 136 2.0 10.0 0.00 0.00 0.00 41 1018.9
20260505181115 53 169 2.0 12.0 0.00 0.00 0.00 42 1018.9
20260505180613 53 114 6.0 12.0 0.00 0.00 0.00 41 1018.9
20260505180108 51 107 3.0 8.0 0.00 0.00 0.00 45 1018.9
20260505175603 51 321 3.0 11.0 0.00 0.00 0.00 43 1018.8
20260505175102 51 342 1.0 11.0 0.00 0.00 0.00 44 1018.8
20260505174822 51 107 1.0 9.0 0.00 0.00 0.00 41 1018.9
20260505174103 51 98 1.0 9.0 0.00 0.00 0.00 43 1018.8
20260505173603 51 132 3.0 9.0 0.00 0.00 0.00 43 1018.8
20260505173103 51 101 3.0 9.0 0.00 0.00 0.00 43 1018.8
20260505172824 51 351 1.0 9.0 0.00 0.00 0.00 44 1018.8
20260505172314 52 37 2.0 7.0 0.00 0.00 0.00 43 1018.7
20260505171554 52 330 1.0 7.0 0.00 0.00 0.00 42 1018.7
20260505171326 53 71 1.0 4.0 0.00 0.00 0.00 41 1018.7
20260505170554 53 71 1.0 5.0 0.00 0.00 0.00 42 1018.7
20260505170050 53 125 2.0 5.0 0.00 0.00 0.00 41 1018.6
20260505165544 53 96 1.0 9.0 0.00 0.00 0.00 42 1018.8
20260505165047 52 60 2.0 9.0 0.00 0.00 0.00 42 1018.8
20260505164547 52 5 3.0 8.0 0.00 0.00 0.00 42 1018.8
20260505164046 52 161 0.0 7.0 0.00 0.00 0.00 44 1018.7
20260505163545 52 350 2.0 7.0 0.00 0.00 0.00 44 1018.7
20260505163040 52 152 0.0 7.0 0.00 0.00 0.00 44 1018.8
20260505162535 52 105 2.0 4.0 0.00 0.00 0.00 43 1018.7
20260505162035 51 111 1.0 6.0 0.00 0.00 0.00 45 1018.7
20260505161536 51 47 0.0 10.0 0.00 0.00 0.00 45 1018.7
20260505161036 51 109 3.0 10.0 0.00 0.00 0.00 43 1018.7
20260505160536 51 319 1.0 7.0 0.00 0.00 0.00 46 1018.6
20260505153012 48 107 2.0 8.0 0.00 0.00 0.00 48 1018.9
20260505152508 48 117 2.0 8.0 0.00 0.00 0.00 48 1018.9
20260505152003 48 310 1.0 7.0 0.00 0.00 0.00 47 1018.9
20260505151503 48 115 1.0 8.0 0.00 0.00 0.00 50 1018.9
20260505151002 48 99 1.0 9.0 0.00 0.00 0.00 48 1018.9
20260505150502 48 98 2.0 9.0 0.00 0.00 0.00 49 1018.9
20260505140424 42 137 0.0 3.0 0.00 0.00 0.00 63 1018.5
20260505124851 32 91 0.0 1.0 0.00 0.00 0.00 85 1017.9
20260505124351 32 91 0.0 0.0 0.00 0.00 0.00 85 1017.8
20260505123847 32 91 0.0 0.0 0.00 0.00 0.00 85 1017.9
20260505123342 32 91 0.0 0.0 0.00 0.00 0.00 84 1017.8
20260505122841 32 91 0.0 0.0 0.00 0.00 0.00 84 1017.8
20260505122343 32 91 0.0 0.0 0.00 0.00 0.00 84 1017.7
20260505121832 32 91 0.0 0.0 0.00 0.00 0.00 84 1017.7
20260505121551 32 91 0.0 2.0 0.00 0.00 0.00 84 1017.6
20260505120827 32 91 0.0 2.0 0.00 0.00 0.00 84 1017.6
20260505120322 32 91 0.0 0.0 0.00 0.00 0.00 84 1017.5
20260505115812 32 91 0.0 0.0 0.00 0.00 0.00 84 1017.5
20260505115307 33 91 0.0 0.0 0.00 0.00 0.00 84 1017.6
20260505114809 33 91 0.0 0.0 0.00 0.00 0.00 84 1017.5
20260505114311 33 91 0.0 0.0 0.00 0.00 0.00 83 1017.5
20260505114028 33 91 0.0 0.0 0.00 0.00 0.00 83 1017.6
20260505113303 33 91 0.0 0.0 0.00 0.00 0.00 83 1017.6
20260505112806 33 91 0.0 0.0 0.00 0.00 0.00 83 1017.5
20260505112243 33 91 0.0 0.0 0.00 0.00 0.00 83 1017.5
20260505111743 33 91 0.0 1.0 0.00 0.00 0.00 83 1017.5
20260505111239 33 91 0.0 1.0 0.00 0.00 0.00 83 1017.5
20260505110739 33 91 0.0 0.0 0.00 0.00 0.00 83 1017.5
20260505110242 33 91 0.0 0.0 0.00 0.00 0.00 83 1017.5
20260505102210 34 91 0.0 0.0 0.00 0.00 0.00 82 1017.5
20260505101655 34 91 0.0 0.0 0.00 0.00 0.00 82 1017.4
20260505101405 34 91 0.0 0.0 0.00 0.00 0.00 82 1017.4
20260505100645 35 91 0.0 0.0 0.00 0.00 0.00 81 1017.4
20260505100145 35 91 0.0 0.0 0.00 0.00 0.00 81 1017.4
20260505095901 35 91 0.0 0.0 0.00 0.00 0.00 80 1017.4
20260505095139 35 91 0.0 0.0 0.00 0.00 0.00 79 1017.4
20260505094624 36 91 0.0 0.0 0.00 0.00 0.00 79 1017.4
20260505094122 36 91 0.0 1.0 0.00 0.00 0.00 79 1017.3
20260505093613 36 91 0.0 1.0 0.00 0.00 0.00 79 1017.2
20260505093106 36 91 0.0 0.0 0.00 0.00 0.00 79 1017.0
20260505092830 36 91 0.0 0.0 0.00 0.00 0.00 79 1017.2
20260505092057 37 91 0.0 0.0 0.00 0.00 0.00 79 1017.2
20260505091824 37 91 0.0 0.0 0.00 0.00 0.00 79 1017.3
20260505091057 37 91 0.0 0.0 0.00 0.00 0.00 79 1017.3
20260505090557 37 91 0.0 0.0 0.00 0.00 0.00 80 1017.3
20260505090534 37 91 0.0 0.0 0.00 0.00 0.00 79 1017.3
20260505085547 37 91 0.0 0.0 0.00 0.00 0.00 79 1017.4
20260505085045 37 91 0.0 0.0 0.00 0.00 0.00 80 1017.4
20260505084535 37 91 0.0 1.0 0.00 0.00 0.00 80 1017.4
20260505084028 37 91 0.0 1.0 0.00 0.00 0.00 80 1017.4
20260505083523 37 91 0.0 0.0 0.00 0.00 0.00 79 1017.4
20260505083025 37 91 0.0 0.0 0.00 0.00 0.00 80 1017.4
20260505082519 37 91 0.0 1.0 0.00 0.00 0.00 80 1017.5
20260505082018 37 91 0.0 1.0 0.00 0.00 0.00 81 1017.5
20260505081509 37 91 0.0 0.0 0.00 0.00 0.00 81 1017.4
20260505081009 37 91 0.0 1.0 0.00 0.00 0.00 81 1017.4
20260505080509 37 91 0.0 1.0 0.00 0.00 0.00 80 1017.4
20260505080230 37 91 0.0 0.0 0.00 0.00 0.00 81 1017.5
20260505075504 37 91 0.0 0.0 0.00 0.00 0.00 80 1017.5
20260505075004 37 91 0.0 0.0 0.00 0.00 0.00 80 1017.5
20260505074504 37 91 0.0 0.0 0.00 0.00 0.00 80 1017.5
20260505074007 37 91 0.0 1.0 0.00 0.00 0.00 81 1017.5
20260505073502 37 91 0.0 1.0 0.00 0.00 0.00 80 1017.4
20260505073442 37 91 0.0 2.0 0.00 0.00 0.00 80 1017.4
20260505072500 37 91 0.0 2.0 0.00 0.00 0.00 80 1017.4
20260505072000 38 91 0.0 1.0 0.00 0.00 0.00 80 1017.3
20260505071455 38 91 0.0 1.0 0.00 0.00 0.00 79 1017.3
20260505071442 38 91 0.0 2.0 0.00 0.00 0.00 80 1017.3
20260505070702 38 91 0.0 1.0 0.00 0.00 0.00 80 1017.3
20260505065931 38 91 0.0 1.0 0.00 0.00 0.00 80 1017.3
20260505065659 38 91 0.0 0.0 0.00 0.00 0.00 79 1017.3
20260505064932 38 91 0.0 0.0 0.00 0.00 0.00 79 1017.3
20260505064430 38 91 0.0 0.0 0.00 0.00 0.00 79 1017.3
20260505063931 38 91 0.0 1.0 0.00 0.00 0.00 79 1017.2
20260505063426 38 91 0.0 2.0 0.00 0.00 0.00 79 1017.3
20260505062906 38 91 0.0 2.0 0.00 0.00 0.00 79 1017.2
20260505062406 38 91 0.0 0.0 0.00 0.00 0.00 79 1016.9
20260505061904 38 91 0.0 0.0 0.00 0.00 0.00 78 1017.2
20260505061402 39 91 0.0 0.0 0.00 0.00 0.00 78 1017.2
20260505060902 39 91 0.0 0.0 0.00 0.00 0.00 77 1017.2
20260505060357 39 91 0.0 0.0 0.00 0.00 0.00 77 1017.3
20260505055857 39 91 0.0 0.0 0.00 0.00 0.00 77 1017.2
20260505055357 39 91 0.0 0.0 0.00 0.00 0.00 76 1017.0
20260505054853 39 91 0.0 0.0 0.00 0.00 0.00 76 1017.0
20260505054347 39 91 0.0 0.0 0.00 0.00 0.00 76 1017.0
20260505053847 39 91 0.0 1.0 0.00 0.00 0.00 76 1016.9
20260505053348 40 91 0.0 1.0 0.00 0.00 0.00 76 1016.9
20260505052848 40 91 0.0 0.0 0.00 0.00 0.00 76 1016.9
20260505052338 40 91 0.0 0.0 0.00 0.00 0.00 75 1016.9
20260505051829 40 91 0.0 2.0 0.00 0.00 0.00 75 1016.9
20260505051319 40 91 0.0 2.0 0.00 0.00 0.00 76 1016.9
20260505050816 41 91 0.0 1.0 0.00 0.00 0.00 74 1016.9
20260505050259 41 91 0.0 0.0 0.00 0.00 0.00 74 1016.9
20260505041750 43 91 0.0 1.0 0.00 0.00 0.00 71 1016.9
20260505041252 43 91 0.0 1.0 0.00 0.00 0.00 70 1016.8
20260505040748 43 91 0.0 0.0 0.00 0.00 0.00 70 1016.8
20260505040241 44 91 0.0 0.0 0.00 0.00 0.00 69 1016.7
20260505040215 44 91 0.0 0.0 0.00 0.00 0.00 68 1016.7
20260505035230 44 91 0.0 0.0 0.00 0.00 0.00 67 1016.6
20260505034953 45 91 0.0 0.0 0.00 0.00 0.00 66 1016.6
20260505034227 45 91 0.0 0.0 0.00 0.00 0.00 65 1016.6
20260505033726 46 91 0.0 0.0 0.00 0.00 0.00 63 1016.5
20260505033216 47 91 0.0 0.0 0.00 0.00 0.00 62 1016.5
20260505032709 48 91 0.0 0.0 0.00 0.00 0.00 60 1016.3
20260505032200 48 91 0.0 0.0 0.00 0.00 0.00 58 1016.3
20260505031919 49 91 0.0 0.0 0.00 0.00 0.00 57 1016.4
20260505031146 49 91 0.0 0.0 0.00 0.00 0.00 58 1016.4
20260505030637 49 91 0.0 0.0 0.00 0.00 0.00 56 1016.3
20260505030137 49 91 0.0 0.0 0.00 0.00 0.00 55 1016.0
20260505025637 50 91 0.0 2.0 0.00 0.00 0.00 51 1016.2
20260505025357 50 91 0.0 2.0 0.00 0.00 0.00 50 1016.3
20260505024628 50 114 0.0 0.0 0.00 0.00 0.00 51 1016.3